This is the latest recevied weather packets stored in our database for station/object W4BOD. If no packets are shown the sender has not sent any weather packets the latest 10 day(s).
| Time | Temp. | Humidity | Pressure | Rain* | Wind** | Luminosity | Snow |
|---|---|---|---|---|---|---|---|
| 1777903399 | 18.89° C | 66% | 1014.4 hPa | 0 mm | - | 537 W/m² | - |
| 1777903096 | 18.33° C | 68% | 1014.5 hPa | 0 mm | - | 559 W/m² | - |
| 1777902793 | 17.78° C | 70% | 1014.6 hPa | 0 mm | - | 186 W/m² | - |
| 1777902490 | 17.22° C | 70% | 1014.6 hPa | 0 mm | - | 155 W/m² | - |
| 1777902187 | 17.22° C | 70% | 1014.8 hPa | 0 mm | - | 116 W/m² | - |
| 1777901885 | 16.67° C | 69% | 1014.6 hPa | 0 mm | - | 131 W/m² | - |
| 1777901582 | 16.67° C | 70% | 1014.6 hPa | 0 mm | - | 107 W/m² | - |
| 1777901279 | 16.67° C | 70% | 1014.8 hPa | 0 mm | - | 99 W/m² | - |
| 1777900977 | 16.67° C | 69% | 1014.8 hPa | 0 mm | - | 100 W/m² | - |
| 1777900674 | 16.11° C | 70% | 1014.6 hPa | 0 mm | - | 103 W/m² | - |
| 1777900371 | 16.11° C | 70% | 1014.7 hPa | 0 mm | - | 93 W/m² | - |
| 1777900068 | 16.11° C | 70% | 1014.6 hPa | 0 mm | - | 97 W/m² | - |
| 1777899764 | 15.56° C | 73% | 1014.7 hPa | 0 mm | - | 96 W/m² | - |
| 1777899461 | 15° C | 76% | 1014.8 hPa | 0 mm | - | 93 W/m² | - |
| 1777899159 | 14.44° C | 76% | 1014.7 hPa | 0 mm | - | 90 W/m² | - |
| 1777898856 | 14.44° C | 77% | 1014.9 hPa | 0 mm | - | 87 W/m² | - |
| 1777898554 | 13.89° C | 77% | 1014.9 hPa | 0 mm | - | 93 W/m² | - |
| 1777898251 | 13.89° C | 77% | 1014.7 hPa | 0 mm | - | 94 W/m² | - |
| 1777897948 | 13.33° C | 77% | 1014.6 hPa | 0 mm | - | 92 W/m² | - |
| 1777897644 | 13.33° C | 78% | 1014.8 hPa | 0 mm | - | 90 W/m² | - |
| 1777897340 | 12.78° C | 79% | 1014.6 hPa | 0 mm | - | 84 W/m² | - |
| 1777897036 | 12.78° C | 79% | 1014.8 hPa | 0 mm | - | 77 W/m² | - |
| 1777896734 | 12.78° C | 79% | 1015 hPa | 0 mm | - | 74 W/m² | - |
| 1777896430 | 12.78° C | 80% | 1014.7 hPa | 0 mm | - | 70 W/m² | - |
| 1777896128 | 12.22° C | 79% | 1014.9 hPa | 0 mm | - | 65 W/m² | - |
* Rain latest hour (hover to see other rain measurements)
** Current wind speed in m/s (hover to see current wind gust speed)